When you browse on this site, cookies collect data to enhance your experience and personalize the content and advertising you see.
Visit our Privacy Policy to learn more. By continuing to use the site, you agree to this use of cookies and data.
  • In United Kingdom
  • List of Countries
  • For 7 days
  • Water Temperature
  • Satellite Maps
  • Weather Map
  • Weather Widgets
  • user-avatar
    Login

    Hourly Weather Paygishevo

    Today, 19 February, Tuesday

    Time Temperature Precipitation Wind Pressure Humidity
    00:00 -19°C° 0 mm 7 mps 745 mmHg 81%
    01:00 -20°C° 0 mm 6 mps 746 mmHg 82%
    02:00 -20°C° 0 mm 6 mps 746 mmHg 82%
    03:00 -20°C° 0 mm 6 mps 746 mmHg 83%
    04:00 -20°C° 0 mm 5 mps 747 mmHg 84%
    05:00 -20°C° 0 mm 5 mps 747 mmHg 86%
    06:00 -21°C° 0 mm 5 mps 748 mmHg 87%
    07:00 -20°C° 0 mm 4 mps 748 mmHg 88%
    08:00 -20°C° 0 mm 4 mps 749 mmHg 88%
    09:00 -18°C° 0 mm 3 mps 749 mmHg 88%
    10:00 -17°C° 0 mm 3 mps 748 mmHg 85%
    11:00 -15°C° 0 mm 2 mps 748 mmHg 82%
    12:00 -11°C° 0 mm 1 mps 748 mmHg 78%
    13:00 -13°C° 0 mm 2 mps 747 mmHg 78%
    14:00 -12°C° 0 mm 2 mps 747 mmHg 78%
    15:00 -12°C° 0 mm 3 mps 746 mmHg 78%
    16:00 -12°C° 0 mm 4 mps 745 mmHg 80%
    17:00 -12°C° 0 mm 4 mps 745 mmHg 82%
    18:00 -12°C° 0 mm 4 mps 744 mmHg 84%
    19:00 -12°C° 0.1 mm 4 mps 744 mmHg 87%
    20:00 -10°C° 0.1 mm 3 mps 743 mmHg 90%
    21:00 -10°C° 0.1 mm 3 mps 743 mmHg 93%
    22:00 -9°C° 0.1 mm 3 mps 743 mmHg 94%
    23:00 -9°C° 0.1 mm 3 mps 743 mmHg 95%

    Tomorrow, 20 February, Wednesday

    Time Temperature Precipitation Wind Pressure Humidity
    00:00 -7°C° 0.1 mm 2 mps 743 mmHg 96%
    01:00 -7°C° 0 mm 2 mps 743 mmHg 96%
    02:00 -7°C° 0 mm 2 mps 743 mmHg 97%
    03:00 -7°C° 0 mm 2 mps 742 mmHg 97%
    04:00 -7°C° 0 mm 3 mps 742 mmHg 97%
    05:00 -7°C° 0 mm 3 mps 742 mmHg 97%
    06:00 -6°C° 0 mm 3 mps 742 mmHg 97%
    07:00 -7°C° 0 mm 4 mps 741 mmHg 96%
    08:00 -7°C° 0 mm 4 mps 741 mmHg 95%
    09:00 -7°C° 0 mm 5 mps 741 mmHg 95%
    10:00 -7°C° 0 mm 5 mps 740 mmHg 93%
    11:00 -7°C° 0 mm 5 mps 740 mmHg 92%
    12:00 -7°C° 0 mm 5 mps 740 mmHg 91%
    13:00 -7°C° 0.1 mm 5 mps 739 mmHg 91%
    14:00 -6°C° 0.1 mm 5 mps 739 mmHg 90%
    15:00 -6°C° 0.1 mm 5 mps 738 mmHg 90%
    16:00 -6°C° 0 mm 5 mps 738 mmHg 90%
    17:00 -6°C° 0 mm 5 mps 738 mmHg 89%
    18:00 -6°C° 0 mm 5 mps 738 mmHg 88%
    19:00 -6°C° 0.1 mm 5 mps 737 mmHg 90%
    20:00 -5°C° 0.1 mm 5 mps 737 mmHg 91%
    21:00 -5°C° 0.1 mm 5 mps 737 mmHg 92%
    22:00 -5°C° 0.3 mm 5 mps 737 mmHg 92%
    23:00 -5°C° 0.3 mm 5 mps 736 mmHg 92%

    Day after tomorrow, 21 February, Thursday

    Time Temperature Precipitation Wind Pressure Humidity
    00:00 -4°C° 0.3 mm 5 mps 736 mmHg 93%
    01:00 -4°C° 0.2 mm 5 mps 736 mmHg 92%
    02:00 -4°C° 0.2 mm 5 mps 736 mmHg 92%
    03:00 -2°C° 0.2 mm 5 mps 736 mmHg 92%
    04:00 -2°C° 0.1 mm 5 mps 736 mmHg 92%
    05:00 -2°C° 0.1 mm 5 mps 736 mmHg 92%
    06:00 -2°C° 0.1 mm 5 mps 736 mmHg 92%
    07:00 -2°C° 0.1 mm 5 mps 736 mmHg 92%
    08:00 -2°C° 0.1 mm 5 mps 736 mmHg 92%
    09:00 -2°C° 0.1 mm 5 mps 736 mmHg 92%
    10:00 -2°C° 0.2 mm 5 mps 736 mmHg 93%
    11:00 -2°C° 0.2 mm 5 mps 736 mmHg 94%
    12:00 -2°C° 0.2 mm 4 mps 736 mmHg 95%
    13:00 -1°C° 0.1 mm 4 mps 736 mmHg 95%
    14:00 -1°C° 0.1 mm 4 mps 736 mmHg 94%
    15:00 -1°C° 0.1 mm 4 mps 736 mmHg 94%
    16:00 -2°C° 0.1 mm 4 mps 736 mmHg 94%
    17:00 -2°C° 0.1 mm 4 mps 736 mmHg 93%
    18:00 -2°C° 0.1 mm 4 mps 736 mmHg 93%
    19:00 -2°C° 0.1 mm 4 mps 736 mmHg 93%
    20:00 -2°C° 0.1 mm 4 mps 736 mmHg 94%
    21:00 -2°C° 0.1 mm 4 mps 735 mmHg 94%
    22:00 -1°C° 0.1 mm 3 mps 735 mmHg 95%
    23:00 -1°C° 0.1 mm 3 mps 735 mmHg 95%

    22 February, Friday

    Time Temperature Precipitation Wind Pressure Humidity
    00:00 -1°C° 0.1 mm 3 mps 735 mmHg 95%
    01:00 -1°C° 0.2 mm 3 mps 735 mmHg 95%
    02:00 -2°C° 0.2 mm 3 mps 735 mmHg 95%
    03:00 -2°C° 0.2 mm 3 mps 735 mmHg 95%
    04:00 -2°C° 0.1 mm 3 mps 735 mmHg 96%
    05:00 -2°C° 0.1 mm 3 mps 735 mmHg 96%
    06:00 -2°C° 0.1 mm 2 mps 735 mmHg 96%
    07:00 -2°C° 0.1 mm 2 mps 735 mmHg 96%
    08:00 -2°C° 0.1 mm 2 mps 735 mmHg 96%
    09:00 0°C° 0.1 mm 1 mps 735 mmHg 96%
    10:00 -2°C° 0.3 mm 2 mps 736 mmHg 96%
    11:00 -2°C° 0.3 mm 2 mps 736 mmHg 97%
    12:00 -1°C° 0.3 mm 2 mps 736 mmHg 97%
    13:00 -1°C° 0.6 mm 2 mps 736 mmHg 97%
    14:00 -1°C° 0.6 mm 2 mps 737 mmHg 96%
    15:00 -1°C° 0.6 mm 2 mps 737 mmHg 95%
    16:00 -1°C° 0.5 mm 2 mps 738 mmHg 96%
    17:00 -2°C° 0.5 mm 2 mps 738 mmHg 96%
    18:00 -2°C° 0.5 mm 2 mps 739 mmHg 96%
    19:00 -4°C° 0.2 mm 3 mps 739 mmHg 95%
    20:00 -5°C° 0.2 mm 3 mps 740 mmHg 94%
    21:00 -8°C° 0.2 mm 4 mps 741 mmHg 93%
    22:00 -8°C° 0.1 mm 4 mps 741 mmHg 94%
    23:00 -8°C° 0.1 mm 4 mps 742 mmHg 94%

    23 February, Saturday

    Time Temperature Precipitation Wind Pressure Humidity
    00:00 -7°C° 0.1 mm 3 mps 743 mmHg 95%
    01:00 -8°C° 0.1 mm 4 mps 744 mmHg 94%
    02:00 -10°C° 0.1 mm 5 mps 744 mmHg 93%
    03:00 -11°C° 0.1 mm 6 mps 745 mmHg 92%
    04:00 -12°C° 0.2 mm 5 mps 746 mmHg 92%
    05:00 -12°C° 0.2 mm 5 mps 746 mmHg 93%
    06:00 -12°C° 0.2 mm 4 mps 747 mmHg 93%
    07:00 -12°C° 0.2 mm 4 mps 748 mmHg 93%
    08:00 -12°C° 0.2 mm 4 mps 748 mmHg 93%
    09:00 -12°C° 0.2 mm 4 mps 749 mmHg 93%
    10:00 -12°C° 0.1 mm 4 mps 750 mmHg 93%
    11:00 -12°C° 0.1 mm 4 mps 750 mmHg 93%
    12:00 -12°C° 0.1 mm 4 mps 751 mmHg 93%
    13:00 -12°C° 0 mm 4 mps 752 mmHg 93%
    14:00 -12°C° 0 mm 3 mps 752 mmHg 93%
    15:00 -12°C° 0 mm 3 mps 752 mmHg 93%
    16:00 -12°C° 0 mm 3 mps 753 mmHg 94%
    17:00 -12°C° 0 mm 2 mps 753 mmHg 94%
    18:00 -12°C° 0 mm 2 mps 754 mmHg 95%
    19:00 -13°C° 0 mm 2 mps 754 mmHg 95%
    20:00 -13°C° 0 mm 2 mps 755 mmHg 96%
    21:00 -14°C° 0 mm 2 mps 755 mmHg 96%
    22:00 -12°C° 0 mm 1 mps 755 mmHg 96%
    23:00 -13°C° 0 mm 1 mps 756 mmHg 96%

    24 February, Sunday

    Time Temperature Precipitation Wind Pressure Humidity
    00:00 -14°C° 0 mm 1 mps 756 mmHg 96%
    01:00 -14°C° 0 mm 1 mps 756 mmHg 97%
    02:00 -14°C° 0 mm 1 mps 757 mmHg 97%
    03:00 -14°C° 0 mm 1 mps 757 mmHg 97%
    04:00 -14°C° 0 mm 1 mps 757 mmHg 97%
    05:00 -14°C° 0 mm 1 mps 758 mmHg 96%
    06:00 -14°C° 0 mm 1 mps 758 mmHg 96%
    07:00 -13°C° 0 mm 1 mps 758 mmHg 96%
    08:00 -13°C° 0 mm 1 mps 759 mmHg 95%
    09:00 -12°C° 0 mm 1 mps 759 mmHg 94%
    10:00 -11°C° 0 mm 1 mps 759 mmHg 93%
    11:00 -12°C° 0 mm 2 mps 759 mmHg 91%
    12:00 -12°C° 0 mm 2 mps 760 mmHg 89%
    13:00 -10°C° 0 mm 2 mps 760 mmHg 90%
    14:00 -10°C° 0 mm 2 mps 760 mmHg 90%
    15:00 -9°C° 0 mm 2 mps 760 mmHg 90%
    16:00 -12°C° 0 mm 2 mps 760 mmHg 91%
    17:00 -13°C° 0 mm 2 mps 760 mmHg 93%
    18:00 -12°C° 0 mm 1 mps 760 mmHg 95%
    19:00 -13°C° 0 mm 1 mps 760 mmHg 95%
    20:00 -15°C° 0 mm 2 mps 760 mmHg 95%
    21:00 -16°C° 0 mm 2 mps 760 mmHg 95%
    22:00 -17°C° 0 mm 2 mps 760 mmHg 95%
    23:00 -17°C° 0 mm 2 mps 760 mmHg 95%
    Show more